www.pogodaiklimat.ru

Погода и климат >> Архив погоды >> Мексика >> Hidalgo del Parral


ПОГОДА в Hidalgo del Parral

  • Прогноз погоды в Hidalgo del Parral
  • Монитор погоды в Hidalgo del Parral
  • Климат города

АРХИВ ПОГОДЫ в Hidalgo del Parral

Время (UTC), дата Ветер
(напр.,м/с)
 
Видим.   Явления Облачность Т
(С)
Тd
(С)
f
(%)
Тe
(С)
Тes
(С)
Комфортность P
(гПа)
Po
(гПа)
Тmin
(С)
Tmax
(С)
R
(мм)
R24
(мм)
S
(см)
21 18.06 С 3 10 км 6/4 1500 м
[Sc Ac trans]
+34.0 +9.1 22 +33 +40 жарко 1008.8 826.4
03 19.06 С 3 1000 м 4/1 720 м
[Sc Ci fib]
+29.0 +8.5 28 +29 +29 жарко 1003.4 825.0
06 19.06 СЗ 4 1000 м 1/0
[Ci fib]
+25.4 +13.2 47 +27 +27 жарко 1005.9 866.6 +18.5 +34.8
09 19.06 СЗ 2 1000 м 5/5 1410 м
[Sc diur, vesp]
+24.0 +12.6 49 +26 +26 жарко 1006.4 853.0
12 19.06 СВ 1 8000 м 1/0 2000 м
[Ac trans]
+21.4 +11.9 55 +24 +24 комфорт 1008.2 825.8 +20.5 +34.8
15 19.06 С 1 10 км ясно +25.6 +11.9 42 +27 +36 жарко 1010.5 826.6
18 19.06 С 3 10 км 5/5 1500 м
[Sc]
+32.4 +8.5 23 +31 +40 жарко 1009.4 826.4 +20.0 +33.0
21 19.06 С 5 10 км 6/4 1500 м
[Sc Ac trans]
+35.0 +8.4 20 +33 +38 жарко 1006.2 825.1
00 20.06 С 5 10 км 5/4 1000 м
[Sc]
+35.1 +8.8 20 +34 +35 очень
жарко
1001.8 823.3 +20.0 +36.2
03 20.06 С 3 1000 м ясно +29.8 +8.8 27 +29 +29 жарко 1001.6 824.3
06 20.06 СЗ 3 1000 м ясно +27.0 +12.0 39 +28 +28 жарко 1003.5 825.3 +20.0 +36.2
09 20.06 С 1 1000 м ясно +22.8 +11.3 48 +25 +25 комфорт 1004.2 824.5
12 20.06 СЗ 2 8000 м ясно +22.2 +11.0 49 +24 +24 комфорт 1006.2 824.5 +22.0 +36.2
15 20.06 СЗ 1 10 км ясно +27.0 +9.9 34 +27 +36 жарко 1008.9 825.7
18 20.06 С 3 10 км 3/3 1500 м
[Sc]
+34.2 +7.5 19 +32 +44 жарко 1008.1 825.8 +22.0 +34.6
21 20.06 С 4 10 км 6/6 1500 м
[Sc]
+37.0 +5.8 15 +34 +39 очень
жарко
1004.5 824.4
00 21.06 С 4 10 км 3/3 1000 м
[Sc]
+36.2 +8.0 18 +34 +36 очень
жарко
1001.1 823.4 +22.0 +37.2
03 21.06 С 2 1000 м ясно +30.2 +4.6 20 +28 +28 жарко 1001.3 824.6
12 21.06 СВ 1 8000 м ясно +19.8 +5.8 40 +22 +22 комфорт 1009.0 826.1 +19.5 +37.2
15 21.06 С 2 10 км 5/1 1500 м
[Sc diur, vesp Ac trans]
+25.6 +10.8 39 +27 +32 жарко 1011.7 826.8
18 21.06 С 4 10 км 4/4 1500 м
[Sc]
+32.2 +10.3 26 +32 +40 жарко 1011.8 827.7 +19.0 +32.8
21 21.06 С 6 10 км 3/3 1500 м
[Sc]
+35.2 +7.7 18 +33 +38 жарко 1008.1 826.3
00 22.06 С 5 10 км 5/5 1000 м
[Sc]
+34.4 +1.6 13 +31 +32 жарко 1004.1 825.0 +19.0 +35.9
03 22.06 С 4 1000 м 3/3 750 м
[Sc]
+29.6 +9.0 28 +29 +29 жарко 1002.1 824.6
12 22.06 СЗ 1 2000 м 3/3 1000 м
[Sc]
+21.4 +12.9 58 +24 +24 комфорт 1009.4 826.9 +20.0 +35.9
15 22.06 СЗ 3 10 км 3/0 2000 м
[Ac trans]
+23.0 +13.4 55 +26 +31 жарко 1012.3 828.0
18 22.06 СЗ 2 10 км 4/3 1500 м
[Sc Ci fib]
+29.0 +14.1 40 +31 +45 жарко 1011.8 827.5 +19.2 +30.1
21 22.06 С 2 10 км 8/6 870 м
[Sc Ci fib]
+33.9 +12.2 27 +34 +40 очень
жарко
1007.9 825.5
00 23.06 С 2 10 км 9/3 300 м
[Cu med, cong Cs]
+31.0 +12.0 31 +31 +34 жарко 1004.1 824.1 +19.2 +34.9
03 23.06 СЗ 3 1000 м 4/0
[Ci fib]
+28.0 +13.0 40 +30 +30 жарко 1003.8 824.8
12 23.06 СЗ 2 2000 м 5/3 1000 м
[Sc Cs]
+21.4 +11.1 52 +23 +23 комфорт 1006.8 824.4 +20.4 +34.9
15 23.06 СЗ 2 10 км 3/0
[Cs]
+26.0 +14.3 48 +28 +35 жарко 1010.1 826.3
18 23.06 С 2 10 км 5/5 960 м
[Cu hum]
+33.0 +10.6 25 +32 +43 жарко 1008.2 825.5 +20.4 +34.0
21 23.06 Ю 3 10 км 5/5 1500 м
[Cu med, cong]
+36.4 +7.8 17 +34 +42 очень
жарко
1004.3 823.8
00 24.06 ЮВ 1 10 км 4/3 2000 м
[Cu hum Ci fib]
+35.6 +3.9 14 +33 +35 жарко 1000.4 822.5 +20.4 +37.0
03 24.06 ЮЗ 2 1000 м 9/3 1110 м
[Sc diur, vesp Cs]
+31.4 +7.5 23 +30 +30 жарко 999.7 823.0
12 24.06 СЗ 2 8000 м 9/9 1500 м
[Sc diur, vesp]
+24.0 +9.9 41 +25 +25 комфорт 1006.4 825.5 +23.4 +37.0
15 24.06 СЗ 3 10 км 1/0 2000 м
[Ac trans]
+27.8 +11.3 36 +29 +35 жарко 1008.1 826.0
18 24.06 СЗ 2 10 км 4/1 1020 м
[Sc Ac trans]
+33.2 +10.5 25 +33 +48 жарко 1007.8 826.1 +22.9 +34.2
21 24.06 СЗ 2 10 км 8/6 1500 м
[Sc Ci fib]
+37.2 +9.3 18 +35 +42 очень
жарко
1002.3 823.4
00 25.06 С 3 10 км 10/10 1000 м
[Cb cap]
+32.0 +8.7 24 +31 +31 жарко 999.7 822.1 +22.9 +38.0
03 25.06 С 3 1000 м слабый дождь {гроза} 10/10 1380 м
[Cb cap]
+23.6 +12.4 49 +25 +25 комфорт 1002.3 824.3 0.2
06 25.06 СЗ 3 1000 м слабая морось {дождь} 10/10 600 м
[Sc]
+21.4 +15.9 71 +25 +25 комфорт 1004.5 826.4 1
09 25.06 СЗ 1 1000 м слабая морось {дождь} 10/10 700 м
[Sc]
+19.2 +13.5 70 +22 +22 комфорт 1009.0 826.5 1
12 25.06 СЗ 2 6000 м 3/0 2000 м
[Ac trans Ci fib]
+20.2 +10.0 52 +22 +22 комфорт 1011.7 826.6 +17.9 +38.0
15 25.06 СЗ 1 10 км 8/0
[Cs]
+23.8 +10.6 43 +25 +32 комфорт 1013.6 827.4
18 25.06 С 2 10 км 3/0 2000 м
[Ac trans Ci fib]
+32.4 +9.2 24 +31 +50 жарко 1012.2 827.3 +17.9 +32.6

 

Местоположение метеостанции Hidalgo del Parral (Мексика): широта 26.93 долгота -105.60 высота над уровнем моря 1661 м.

В архиве по умолчанию представлена погода в Hidalgo del Parral за последнюю неделю. Архивные данные за месяц целиком и за предыдущие месяцы, начиная с января 2011 года, Вы можете получить, выбрав интересующий диапазон дат из раскрывающегося списка и нажав кнопку "Ввод!".


*Определитесь, кто Вы:
робот инопланетянин человек

Внимание! Время в таблицах - всемирное. Для получения местного времени необходимо прибавить поправку, которая в Hidalgo del Parral равна -6 ч.

Смотрите также архив погоды в соседних городах и на ближайших метеорологических станциях:

Погода в Tepehuanes (Мексика) (177 км)
Погода в Chihuahua University (Мексика) (193 км)
Погода в Chihuahua (Мексика) (202 км)
Погода в Choix (Мексика) (259 км)
Погода в Torreon (Мексика) (269 км)
Погода в Culiacan (Мексика) (298 км)
Погода в Temosachic (Мексика) (312 км)
Погода в Durango (Мексика) (336 км)
Погода в Monclova (Мексика) (417 км)
Погода в Sombrerete (Мексика) (419 км)

Пояснения к столбцам:

Ветер - указаны скорость ветра в м/с - средняя за 10 мин, порывы в срок и между сроками (в фигурных скобках) и направление, откуда дует ветер: С - северный, СВ - северо-восточный, В - восточный, ЮВ - юго-восточный, Ю - южный, ЮЗ - юго-западный, З - западный, СЗ - северо-западный.
Видимость - горизонтальная дальность видимости в метрах или километрах. При видимости от 1 до 10 км при отсутствии осадков обычно наблюдается дымка, при ухудшении видимости до 1 км и менее - туман. В сухую погоду видимость может ухудшаться дымом, пылью или мглою.
Явления - указаны атмосферные явления, наблюдавшиеся в срок или в последний час перед сроком; фигурными скобками обозначены явления, наблюдавшиеся между сроками (за 1-3 часа до срока); квадратными скобками обозначены град или гололедные отложения с указанием их диаметра в мм.
Облачность - указаны через наклонную черту общая и нижняя облачность в баллах и высота нижней границы облаков в метрах; квадратными скобками обозначены формы облаков: Ci - перистые, Cs - перисто-слоистые, Cc - перисто-кучевые, Ac - высококучевые, As - высокослоистые, Sc - слоисто-кучевые, Ns - слоисто-дождевые, Cu - кучевые, Cb - кучево-дождевые. Подробнее классификацию облаков см. в Атласе облаков (PDF).
T - Температура воздуха - температура, измеренная на высоте 2 м над землей.
Td - Температура точки росы - температура, при понижении до которой содержащийся в воздухе водяной пар достигнет насыщения.
f - Относительная влажность воздуха - влажноcть воздуха, измеренная на высоте 2 м над землей.
Te - Эффективная температура - температура, которую ощущает одетый по сезону человек в тени. Характеристика душности погоды. При расчете учитывается влияние влажности воздуха и скорости ветра на теплоощущения человека.
Tes - Эффективная температура на солнце - температура, которую ощущает человек, с поправкой на солнечный нагрев. Характеристика знойности погоды. Зависит от высоты солнца над горизонтом, облачности и скорости ветра. Ночью, в пасмурную погоду, а также при ветре 12 м/с и более поправка равна нулю.
P - Атмосферное давление - приведенное к уровню моря атмосферное давление.
Po - Атмосферное давление - измеренное на уровне метеостанции атмосферное давление.
Tmin - Минимальная температура - минимум температуры воздуха на высоте 2 м над землей.
Tmax - Максимальная температура - максимум температуры воздуха на высоте 2 м над землей.
R - Количество осадков - Количество выпавших осадков за период времени, мм. При наведении курсора мыши на число - период времени, за который выпало указанное количество осадков.
R24 - Количество осадков - Количество выпавших осадков за 24 часа, мм.
S - Снежный покров - Высота снежного покрова, см. При наведении курсора мыши на число - состояние снежного покрова и степень покрытия местности в баллах.